Spokane Fairchild, WA
on Thursday, December 20, 2012

Thursday
Previous Day Next Day
Daily Summary
 ActualAverage (KGEG)Record (KGEG)
Temperature
Mean Temperature °F 26°F  
Max Temperature 39°F 31°F 54°F (1933)
Min Temperature 30°F 22°F -18°F (2008)
Degree Days
Heating Degree Days 30 39  
Month to date heating degree days 745  
Since 1 July heating degree days 2412  
Cooling Degree Days 0 0  
Month to date cooling degree days 0  
Year to date cooling degree days 450  
Moisture
Dew Point 30°F   
Average Humidity 86    
Maximum Humidity 100    
Minimum Humidity 50    
Precipitation
Precipitation 0.01 in 0.07 in 0.83 in (1940)
Month to date precipitation 1.55  
Year to date precipitation 15.81  
Snow
Snow 0.00 in 0.50 in 7.60 in (1987)
Month to date snowfall 8.8  
Since 1 July snowfall 16.3  
Snow Depth 6.00 in   
Wind
Wind Speed 18 mph   
Max Wind Speed 26 mph   
Max Gust Speed 32 mph   
Visibility 8 miles   
Events Rain , Snow   

Key: T is trace of precipitation, MM is missing value
Source: NWS Daily Summary
Time(PST)TemperatureDew PointHumidity Pressure Visibility Wind DirectionWind SpeedGust SpeedPrecipitationEvents Conditions
12:08 AM 32.0°F 32.0°F 100% 29.84 in 10.0 miles SE 20.7 mph 27.6 mph N/A Snow Light Snow
12:18 AM 32.0°F 32.0°F 100% 29.84 in 10.0 miles SE 17.3 mph 27.6 mph N/A Snow Light Snow
12:56 AM 32.0°F 32.0°F 100% 29.82 in 10.0 miles SE 21.9 mph - N/A Snow Light Snow
12:58 AM 32.0°F 32.0°F 100% 29.89 in 10.0 miles SE 20.7 mph - 0.00 in Snow Light Snow
1:23 AM 32.0°F 32.0°F 100% 29.82 in 10.0 miles SSE 17.3 mph 26.5 mph N/A Snow Light Snow
1:58 AM 32.4°F 32.2°F 99% 29.90 in 9.0 miles SSE 24.2 mph 31.1 mph 0.00 in Snow Light Snow
2:18 AM 32.0°F 32.0°F 100% 29.82 in 2.5 miles SE 20.7 mph 31.1 mph N/A Snow Light Snow
2:28 AM 32.0°F 32.0°F 100% 29.82 in 2.0 miles SSE 20.7 mph 31.1 mph N/A Snow Light Snow
2:33 AM 32.0°F 32.0°F 100% 29.82 in 2.0 miles SSE 20.7 mph 28.8 mph N/A Snow Light Snow
2:48 AM 32.0°F 32.0°F 100% 29.82 in 3.0 miles SSE 19.6 mph 25.3 mph N/A Snow Light Snow
2:53 AM 32.0°F 32.0°F 100% 29.82 in 2.5 miles SSE 18.4 mph 24.2 mph N/A Snow Light Snow
2:58 AM 32.0°F 32.0°F 100% 29.90 in 2.5 miles SSE 21.9 mph 27.6 mph 0.00 in Snow Light Snow
3:08 AM 32.0°F 32.0°F 100% 29.82 in 3.0 miles SSE 21.9 mph 28.8 mph N/A Snow Light Snow
3:33 AM 32.0°F 32.0°F 100% 29.80 in 2.5 miles SE 25.3 mph 31.1 mph N/A Snow Light Snow
3:48 AM 32.0°F 32.0°F 100% 29.80 in 3.0 miles SE 23.0 mph 27.6 mph N/A Snow Light Snow
3:58 AM 30.6°F 30.6°F 100% 29.87 in 4.0 miles SE 20.7 mph 26.5 mph 0.00 in   Overcast
4:18 AM 32.0°F 32.0°F 100% 29.79 in 7.0 miles SE 23.0 mph 32.2 mph N/A Snow Light Snow
4:24 AM 32.0°F 32.0°F 100% 29.80 in 5.0 miles SSE 26.5 mph 32.2 mph N/A Snow Light Snow
4:34 AM 32.0°F 32.0°F 100% 29.79 in 3.0 miles SSE 23.0 mph 32.2 mph N/A Snow Light Snow
4:54 AM 32.0°F 32.0°F 100% 29.79 in 2.5 miles SSE 21.9 mph 32.2 mph N/A Snow Light Snow
4:58 AM 30.7°F 30.7°F 100% 29.87 in 2.5 miles SSE 19.6 mph 32.2 mph 0.00 in Snow Light Snow
5:08 AM 32.0°F 32.0°F 100% 29.79 in 3.0 miles SE 20.7 mph 27.6 mph N/A Snow Light Snow
5:43 AM 32.0°F 32.0°F 100% 29.79 in 8.0 miles SE 20.7 mph 27.6 mph N/A   Overcast
5:48 AM 32.0°F 32.0°F 100% 29.78 in 10.0 miles SE 18.4 mph 27.6 mph N/A Snow Light Snow
5:58 AM 31.3°F 31.3°F 100% 29.88 in 10.0 miles SE 16.1 mph 24.2 mph 0.00 in Snow Light Snow
6:03 AM 32.0°F 32.0°F 100% 29.79 in 10.0 miles SSE 18.4 mph - N/A   Light Drizzle
6:58 AM 33.8°F 30.7°F 89% 29.85 in 10.0 miles SE 17.3 mph - 0.00 in Snow Light Snow
7:58 AM 35.1°F 26.1°F 70% 29.84 in 10.0 miles SE 18.4 mph - 0.00 in   Light Drizzle
8:50 AM 35.6°F 23.0°F 60% 29.77 in 10.0 miles SE 13.8 mph - N/A   Overcast
8:58 AM 36.0°F 23.2°F 60% 29.83 in 10.0 miles SE 17.3 mph - 0.00 in   Overcast
8:59 AM 35.6°F 23.0°F 60% 29.77 in 10.0 miles SE 18.4 mph - N/A   Light Drizzle
9:15 AM 37.4°F 23.0°F 56% 29.78 in 10.0 miles SE 18.4 mph 25.3 mph N/A   Overcast
9:37 AM 37.4°F 23.0°F 56% 29.76 in 10.0 miles SE 16.1 mph 25.3 mph N/A Rain Light Rain
9:52 AM 37.4°F 23.0°F 56% 29.76 in 10.0 miles SE 18.4 mph 25.3 mph N/A   Overcast
9:56 AM 37.4°F 23.0°F 56% 29.76 in 10.0 miles SE 17.3 mph - N/A Rain Light Rain
9:58 AM 37.4°F 23.0°F 56% 29.83 in 10.0 miles SE 16.1 mph - 0.00 in Rain Light Rain
10:33 AM 37.4°F 26.6°F 65% 29.74 in 10.0 miles SE 17.3 mph 27.6 mph N/A Snow Light Snow
10:38 AM 37.4°F 26.6°F 65% 29.74 in 10.0 miles SE 17.3 mph - N/A Rain Light Rain
10:58 AM 37.6°F 25.2°F 61% 29.78 in 10.0 miles ESE 16.1 mph - 0.00 in Snow Light Snow
11:11 AM 37.4°F 24.8°F 60% 29.72 in 10.0 miles SE 18.4 mph 24.2 mph N/A   Overcast
11:58 AM 39.2°F 23.7°F 54% 29.77 in 10.0 miles SE 18.4 mph 29.9 mph 0.00 in   Overcast
12:58 PM 39.4°F 23.7°F 54% 29.76 in 10.0 miles SSE 19.6 mph 27.6 mph N/A   Overcast
1:58 PM 39.9°F 22.6°F 50% 29.76 in 10.0 miles SSE 16.1 mph 25.3 mph N/A   Overcast
2:58 PM 39.6°F 24.4°F 55% 29.77 in 10.0 miles SSE 15.0 mph - N/A   Overcast
3:27 PM 39.2°F 24.8°F 56% 29.71 in 10.0 miles SSE 16.1 mph - N/A   Overcast
3:56 PM 39.2°F 24.8°F 56% 29.72 in 10.0 miles South 18.4 mph 25.3 mph N/A   Overcast
3:58 PM 39.2°F 24.8°F 56% 29.78 in 10.0 miles SSE 18.4 mph 25.3 mph 0.00 in   Overcast
4:58 PM 39.0°F 25.9°F 59% 29.79 in 10.0 miles South 13.8 mph 24.2 mph 0.00 in   Mostly Cloudy
5:58 PM 37.6°F 27.3°F 66% 29.81 in 10.0 miles South 9.2 mph - N/A   Overcast
6:32 PM 35.6°F 24.8°F 65% 29.77 in 10.0 miles South 8.1 mph - N/A   Clear
6:58 PM 37.0°F 26.4°F 65% 29.83 in 10.0 miles SSW 11.5 mph - 0.00 in   Clear
7:10 PM 35.6°F 28.4°F 75% 29.78 in 10.0 miles SSW 11.5 mph - N/A   Clear
7:58 PM 35.2°F 33.4°F 93% 29.85 in 10.0 miles SSW 10.4 mph - 0.00 in   Mostly Cloudy
8:41 PM 35.6°F 35.6°F 100% 29.81 in 10.0 miles SSW 8.1 mph - N/A Rain Light Rain
8:52 PM 35.6°F 35.6°F 100% 29.81 in 10.0 miles SW 10.4 mph - N/A Rain Light Rain
8:57 PM 35.6°F 35.6°F 100% 29.81 in 10.0 miles SSW 10.4 mph - N/A Rain Light Rain
8:58 PM 35.6°F 35.6°F 100% 29.87 in 10.0 miles SSW 10.4 mph - 0.00 in Rain Light Rain
9:09 PM 35.6°F 35.6°F 100% 29.81 in 10.0 miles SSW 10.4 mph - N/A   Overcast
9:19 PM 35.6°F 35.6°F 100% 29.82 in 10.0 miles South 9.2 mph - N/A   Overcast
9:29 PM 35.6°F 35.6°F 100% 29.82 in 10.0 miles South 6.9 mph - N/A   Overcast
9:34 PM 35.6°F 35.6°F 100% 29.82 in 10.0 miles South 6.9 mph - N/A   Overcast
9:41 PM 33.8°F 33.8°F 100% 29.82 in 10.0 miles South 8.1 mph - N/A   Overcast
9:42 PM 33.8°F 33.8°F 100% 29.82 in 10.0 miles South 8.1 mph - N/A Rain Light Rain
9:58 PM 35.1°F 35.1°F 100% 29.88 in 10.0 miles South 10.4 mph - 0.00 in Rain Light Rain
10:03 PM 35.6°F 35.6°F 100% 29.83 in 10.0 miles South 9.2 mph - N/A Rain Light Rain
10:18 PM 33.8°F 33.8°F 100% 29.83 in 10.0 miles SSW 10.4 mph - N/A Snow Light Snow
10:43 PM 33.8°F 33.8°F 100% 29.83 in 10.0 miles SSW 8.1 mph - N/A   Overcast
10:48 PM 33.8°F 33.8°F 100% 29.83 in 10.0 miles SSW 9.2 mph - N/A   Overcast
10:58 PM 34.5°F 34.5°F 100% 29.89 in 10.0 miles SSW 11.5 mph - 0.01 in   Mostly Cloudy
11:51 PM 33.8°F 33.8°F 100% 29.84 in 10.0 miles South 8.1 mph - N/A   Overcast
11:58 PM 33.8°F 33.8°F 100% 29.90 in 10.0 miles South 9.2 mph - 0.00 in Rain Light Rain
11:59 PM 33.8°F 33.8°F 100% 29.84 in 10.0 miles South 9.2 mph - N/A Rain Light Rain
Moon Phase
Dec. 20 Dec. 28 Jan. 04 Jan. 11 Jan. 18
Sunrise:07:35 AM (PST) Moon Rise:11:42 AM (PST)
Sunset:04:01 PM (PST) Moon Set:12:04 AM (PST)

Copyright © 2014 The Weather Underground, Inc.